Total_Precipitation_Accumulation
1.96 2.14 2.44 2.93 3.73 4.47 5.14 5.25 5.49 5.02 4.38 3.85 3.48 3.37 3.16 2.85 2.72 2.59 2.41 2.26 2.05 1.91 2.10 1.94 2.00 1.86 1.93 1.95 2.07 2.31 2.42 2.08 2.21 2.65 2.26 1.67 1.34 1.35 1.22 1.18 1.25 1.29 1.30
2.03 2.38 2.90 3.30 3.33 3.87 4.56 4.61 4.32 4.09 3.64 3.26 3.11 2.94 2.88 2.56 2.37 2.21 2.21 2.01 1.85 1.85 1.85 1.98 1.86 1.82 1.93 1.93 2.01 2.20 2.20 1.94 2.14 2.61 2.71 2.17 1.80 1.52 1.13 1.12 1.19 1.31 1.50
1.89 2.31 2.73 3.16 3.14 3.52 3.60 3.23 3.07 3.15 3.10 2.94 2.83 2.70 2.69 2.49 2.22 2.04 2.01 1.84 1.64 1.65 1.66 1.67 1.74 1.85 1.68 1.80 1.97 2.11 2.23 2.11 2.03 2.31 2.71 2.49 2.14 1.82 1.45 1.33 1.42 1.56 1.70
1.35 1.63 1.97 2.39 2.59 2.68 2.59 2.55 2.53 2.58 2.77 2.77 2.54 2.36 2.09 1.99 1.91 1.80 1.84 1.82 1.59 1.52 1.53 1.52 1.67 1.75 1.69 1.89 1.66 1.78 2.07 2.27 2.07 2.08 2.13 2.15 2.34 2.33 1.94 1.60 1.50 1.62 1.76
1.04 1.18 1.27 1.48 1.77 2.02 2.08 2.07 2.35 2.44 2.48 2.46 2.41 2.41 2.14 1.96 1.90 2.02 2.22 2.14 1.83 1.51 1.35 1.45 1.59 1.68 1.72 1.80 1.75 1.86 1.85 1.93 1.96 2.00 1.99 2.08 2.29 2.18 2.12 1.95 1.76 1.69 1.54
0.81 0.99 1.03 1.06 1.20 1.35 1.48 1.60 1.86 2.08 2.16 2.12 2.13 2.19 2.18 2.14 1.96 1.90 1.95 1.89 1.75 1.55 1.39 1.42 1.62 1.68 1.72 1.74 1.78 1.78 1.73 1.81 1.90 1.95 1.97 2.10 2.10 2.04 2.15 2.06 1.88 1.78 1.52
0.64 0.81 0.80 0.84 0.95 0.98 1.09 1.27 1.48 1.64 1.76 1.84 1.92 1.98 2.15 2.08 1.86 1.66 1.69 1.68 1.54 1.45 1.43 1.41 1.66 1.76 1.74 1.72 1.81 1.79 1.77 1.88 1.94 1.96 1.99 2.04 2.00 1.99 2.16 2.21 1.95 1.81 1.64
0.56 0.62 0.57 0.58 0.73 0.80 0.88 1.04 1.17 1.26 1.38 1.60 1.83 1.81 1.91 1.77 1.64 1.74 1.65 1.54 1.35 1.38 1.59 1.70 1.72 1.69 1.73 1.75 1.98 1.83 1.84 1.92 1.95 1.88 2.17 2.12 1.98 2.16 2.36 2.52 2.56 2.25 2.04
0.53 0.51 0.44 0.46 0.49 0.54 0.62 0.79 1.07 1.17 1.21 1.30 1.52 1.62 1.60 1.61 1.67 1.80 1.74 1.62 1.54 1.41 1.59 1.74 1.83 1.74 1.72 1.82 2.03 1.99 2.03 2.13 2.04 2.04 2.27 2.22 2.11 2.16 2.23 2.49 2.75 2.77 2.51
0.59 0.62 0.45 0.41 0.43 0.42 0.51 0.62 0.81 1.02 1.21 1.21 1.21 1.25 1.49 1.56 1.67 1.71 1.60 1.59 1.57 1.56 1.61 1.57 1.62 1.61 1.60 1.73 2.02 2.04 2.09 2.24 2.19 2.17 2.21 2.22 2.12 2.19 2.17 2.29 2.62 2.89 2.90
0.52 0.58 0.40 0.33 0.37 0.40 0.47 0.61 0.75 1.03 1.23 1.14 1.15 1.26 1.43 1.52 1.57 1.71 1.69 1.62 1.60 1.63 1.57 1.52 1.55 1.52 1.45 1.52 1.71 1.83 2.03 2.16 2.21 2.19 2.24 2.24 2.33 2.36 2.25 2.34 2.46 2.68 2.85
0.54 0.56 0.47 0.48 0.50 0.55 0.58 0.70 0.80 0.97 1.09 1.11 1.18 1.24 1.34 1.42 1.47 1.52 1.60 1.67 1.64 1.69 1.66 1.61 1.58 1.45 1.42 1.51 1.64 1.78 1.95 2.10 2.21 2.31 2.39 2.19 2.26 2.39 2.33 2.33 2.36 2.46 2.73
0.64 0.59 0.62 0.70 0.67 0.70 0.78 0.85 0.93 0.96 1.04 1.19 1.19 1.16 1.23 1.22 1.27 1.35 1.44 1.57 1.62 1.66 1.70 1.71 1.64 1.57 1.59 1.68 1.74 1.81 1.95 2.08 2.15 2.24 2.23 2.18 2.31 2.23 2.26 2.33 2.31 2.30 2.37
0.65 0.55 0.61 0.66 0.71 0.73 0.80 0.89 0.94 0.97 1.03 1.05 1.06 1.09 1.12 1.17 1.27 1.36 1.41 1.47 1.44 1.51 1.54 1.54 1.62 1.64 1.69 1.72 1.73 1.73 1.78 1.86 1.93 1.91 1.82 1.75 1.82 1.89 2.04 2.05 2.06 2.14 2.23
0.63 0.51 0.53 0.61 0.71 0.75 0.75 0.82 0.92 0.98 1.11 1.11 1.08 1.12 1.19 1.18 1.22 1.25 1.27 1.30 1.36 1.38 1.54 1.59 1.67 1.72 1.69 1.60 1.65 1.66 1.58 1.76 1.73 1.59 1.53 1.54 1.63 1.65 1.73 1.66 1.75 1.92 2.00
0.59 0.58 0.63 0.70 0.70 0.69 0.70 0.73 0.74 0.84 1.01 1.08 1.18 1.27 1.26 1.16 1.19 1.21 1.20 1.25 1.36 1.45 1.55 1.61 1.71 1.75 1.60 1.64 1.68 1.69 1.67 1.72 1.68 1.63 1.56 1.44 1.43 1.41 1.45 1.49 1.53 1.67 1.81
0.53 0.61 0.67 0.71 0.71 0.69 0.67 0.67 0.66 0.77 1.05 1.15 1.17 1.31 1.38 1.29 1.33 1.36 1.35 1.36 1.40 1.53 1.60 1.73 1.79 1.77 1.79 1.70 1.57 1.59 1.57 1.63 1.67 1.68 1.67 1.41 1.24 1.34 1.32 1.44 1.42 1.39 1.45
0.52 0.61 0.62 0.63 0.65 0.67 0.69 0.69 0.70 0.76 1.00 1.18 1.24 1.46 1.61 1.51 1.52 1.51 1.53 1.56 1.61 1.66 1.79 1.82 1.73 1.69 1.71 1.63 1.39 1.33 1.25 1.37 1.48 1.56 1.62 1.61 1.50 1.46 1.47 1.52 1.52 1.45 1.43
0.61 0.63 0.67 0.69 0.75 0.82 0.85 0.84 0.92 1.03 1.17 1.30 1.42 1.64 1.84 1.90 1.85 1.77 1.85 1.90 1.90 1.91 1.97 2.00 1.95 1.82 1.78 1.58 1.28 1.17 1.14 1.29 1.37 1.43 1.43 1.42 1.33 1.33 1.25 1.28 1.35 1.37 1.33
0.66 0.77 0.88 0.87 0.89 0.97 0.97 1.01 1.13 1.32 1.46 1.48 1.51 1.63 1.83 1.91 1.88 1.86 2.01 2.15 2.15 2.11 2.13 2.02 1.89 1.78 1.75 1.67 1.35 1.18 1.15 1.29 1.38 1.47 1.46 1.42 1.35 1.30 1.16 1.12 1.19 1.19 1.19
0.67 0.73 0.76 0.87 0.97 1.08 1.16 1.27 1.33 1.41 1.45 1.47 1.49 1.58 1.81 2.11 2.04 2.05 2.11 2.23 2.27 2.29 2.31 2.20 2.08 1.93 1.88 1.83 1.50 1.32 1.25 1.34 1.40 1.35 1.36 1.34 1.30 1.11 1.01 0.99 1.05 1.09 1.08
0.72 0.72 0.71 0.83 1.00 1.19 1.37 1.42 1.41 1.44 1.54 1.55 1.55 1.63 1.87 1.96 2.00 2.12 2.17 2.30 2.39 2.39 2.34 2.34 2.19 2.13 2.05 1.79 1.52 1.33 1.30 1.37 1.46 1.46 1.41 1.37 1.23 0.99 0.88 0.78 0.76 0.80 0.80
0.82 0.84 0.84 0.90 1.00 1.17 1.38 1.52 1.53 1.53 1.51 1.48 1.47 1.56 1.69 1.76 1.89 1.97 1.93 1.99 2.11 2.12 2.15 2.17 2.12 2.14 2.22 2.07 1.64 1.34 1.26 1.31 1.40 1.54 1.60 1.40 1.22 1.07 0.93 0.87 0.78 0.71 0.68
0.95 0.94 0.96 0.98 1.04 1.13 1.31 1.45 1.44 1.48 1.48 1.42 1.38 1.47 1.67 1.77 1.84 1.89 1.88 1.94 2.01 2.06 2.12 2.13 2.06 2.07 2.21 2.19 1.86 1.54 1.35 1.25 1.21 1.25 1.27 1.19 1.12 1.01 0.90 0.81 0.72 0.64 0.68
0.95 0.92 0.93 0.96 0.98 1.06 1.27 1.41 1.42 1.46 1.52 1.49 1.44 1.51 1.61 1.72 1.85 1.90 1.93 1.95 1.96 1.92 1.91 1.92 1.87 1.87 1.97 1.96 1.75 1.54 1.39 1.27 1.22 1.21 1.25 1.23 1.22 1.11 1.01 0.94 0.88 0.87 0.88
0.95 0.97 1.00 0.99 0.98 1.06 1.21 1.34 1.49 1.63 1.66 1.58 1.53 1.49 1.48 1.56 1.63 1.69 1.65 1.58 1.53 1.51 1.46 1.46 1.38 1.36 1.50 1.49 1.25 1.12 1.14 1.14 1.10 1.10 1.16 1.23 1.26 1.21 1.14 1.09 1.03 1.03 1.01